Volver al catálogo

STARLINK-1812

ActivoComunicacionesVLEO
NORAD 47126·PAYLOAD·🇺🇸 United States

Lanzado Nov 25, 2020 desde Cape Canaveral Space Force Station

Loading…

Próximos Pases (próximas 24 horas)

TLE

ActualizadoSource: CelesTrak SupGP

Época: Sep 14, 2026, 21:58 UTC

1 47126C 20088E   26257.91576389 -.00017486  00000+0 -66680-3 0  2571
2 47126  53.0954 151.7448 0003767 106.1626 275.6745 15.26151715    14

Sigue STARLINK-1812 en tiempo real con AllMySat

Download on the App Store